Robstown, TX

5:39 AM CDT on May 24, 2017 (GMT -0500)
Robstown

Weather History for KRBO - October, 2012

Change the Weather History Date:

Saturday, October 27, 2012

  Actual Average (KCRP) Record (KCRP)
Temperature  
Mean Temperature 60 °F -  
Max Temperature 67 °F 80 °F 93 °F (1995)
Min Temperature 54 °F 62 °F 43 °F (1957)
Degree Days  
Heating Degree Days 5    
Growing Degree Days 10 (Base 50)    
Moisture  
Dew Point 40 °F    
Average Humidity 49    
Maximum Humidity 69    
Minimum Humidity 33    
Precipitation  
Precipitation 0.00 in - - ()
Sea Level Pressure  
Sea Level Pressure 30.18 in    
Wind  
Wind Speed 15 mph (North)    
Max Wind Speed 21 mph    
Max Gust Speed 28 mph    
Visibility 10 miles    
Events      
Averages and records for this station are not official NWS values.
T = Trace of Precipitation, MM = Missing Value Source: NWS Daily Summary

Daily Weather History Graph

Daily Weather History Graph

Search for Another Location

Airport or City:

Trip Planner

Search our weather history database for the weather conditions in past years. The results will help you decide how hot, cold, wet, or windy it might be!

Date:

Astronomy

Oct. 27, 2012 Rise Set
Actual Time 7:38 AM CDT 6:50 PM CDT
Civil Twilight 7:14 AM CDT 7:14 PM CDT
Nautical Twilight 6:47 AM CDT 7:41 PM CDT
Astronomical Twilight 6:19 AM CDT 8:08 PM CDT
Moon 5:31 PM CDT (10/27) 5:42 AM CDT (10/27)
Length of Visible Light 11h 59m
Length of Day
11h 11m
Waxing Gibbous, 96% of the Moon is Illuminated
Oct 27
Waxing Gibbous
Oct 29
Full
Nov 6
Last Quarter
Nov 13
New
Nov 20
First Quarter

Hourly Weather History & Observations

Time (CDT) Temp. Dew Point Humidity Pressure Visibility Wind Dir Wind Speed Gust Speed Precip Events Conditions
12:15 AM 56.8 °F 46.9 °F 69% 30.20 in 10.0 mi North 16.1 mph 21.9 mph N/A   Overcast
12:35 AM 56.8 °F 46.6 °F 69% 30.20 in 10.0 mi North 18.4 mph 24.2 mph N/A   Overcast
12:55 AM 56.8 °F 46.4 °F 68% 30.19 in 10.0 mi North 16.1 mph 23.0 mph N/A   Overcast
1:15 AM 56.8 °F 46.4 °F 68% 30.19 in 10.0 mi North 20.7 mph 25.3 mph N/A   Overcast
1:35 AM 57.0 °F 46.2 °F 67% 30.18 in 10.0 mi North 16.1 mph 25.3 mph N/A   Overcast
1:55 AM 56.8 °F 46.4 °F 68% 30.19 in 10.0 mi North 13.8 mph - N/A   Overcast
2:15 AM 56.7 °F 45.5 °F 66% 30.19 in 10.0 mi North 16.1 mph 20.7 mph N/A   Overcast
2:35 AM 56.7 °F 45.0 °F 65% 30.19 in 10.0 mi North 17.3 mph 26.5 mph N/A   Overcast
2:55 AM 56.5 °F 44.2 °F 64% 30.19 in 10.0 mi North 18.4 mph 23.0 mph N/A   Overcast
3:15 AM 56.5 °F 43.7 °F 62% 30.18 in 10.0 mi North 18.4 mph 26.5 mph N/A   Overcast
3:35 AM 56.3 °F 43.2 °F 61% 30.18 in 10.0 mi North 20.7 mph 26.5 mph N/A   Overcast
3:55 AM 56.3 °F 43.2 °F 61% 30.17 in 10.0 mi North 16.1 mph 25.3 mph N/A   Overcast
4:15 AM 56.3 °F 42.8 °F 61% 30.17 in 10.0 mi North 16.1 mph 25.3 mph N/A   Overcast
4:35 AM 56.3 °F 42.4 °F 60% 30.18 in 10.0 mi North 13.8 mph - N/A   Overcast
4:55 AM 55.9 °F 41.7 °F 59% 30.17 in 10.0 mi North 17.3 mph 23.0 mph N/A   Overcast
5:15 AM 55.9 °F 41.4 °F 58% 30.18 in 10.0 mi North 15.0 mph 23.0 mph N/A   Overcast
5:35 AM 55.8 °F 40.6 °F 57% 30.20 in 10.0 mi North 17.3 mph 23.0 mph N/A   Overcast
5:55 AM 55.6 °F 40.1 °F 56% 30.21 in 10.0 mi North 16.1 mph - N/A   Overcast
6:15 AM 55.4 °F 39.6 °F 55% 30.20 in 10.0 mi North 18.4 mph 21.9 mph N/A   Overcast
6:35 AM 55.4 °F 39.4 °F 55% 30.22 in 10.0 mi NNW 17.3 mph - N/A   Overcast
6:55 AM 55.2 °F 38.1 °F 53% 30.22 in 10.0 mi North 17.3 mph - N/A   Overcast
7:15 AM 54.9 °F 38.1 °F 53% 30.21 in 10.0 mi North 19.6 mph 24.2 mph N/A   Overcast
7:35 AM 54.7 °F 37.8 °F 53% 30.21 in 10.0 mi North 18.4 mph 25.3 mph N/A   Overcast
7:55 AM 54.9 °F 37.9 °F 53% 30.23 in 10.0 mi North 18.4 mph 25.3 mph N/A   Mostly Cloudy
8:15 AM 54.7 °F 38.1 °F 54% 30.25 in 10.0 mi North 16.1 mph 27.6 mph N/A   Overcast
8:35 AM 54.9 °F 38.5 °F 54% 30.26 in 10.0 mi North 15.0 mph - N/A   Overcast
8:55 AM 55.0 °F 38.5 °F 54% 30.27 in 10.0 mi North 17.3 mph - N/A   Overcast
9:15 AM 55.6 °F 38.8 °F 53% 30.28 in 10.0 mi NNW 18.4 mph 23.0 mph N/A   Overcast
9:35 AM 55.2 °F 38.3 °F 53% 30.27 in 10.0 mi NNW 17.3 mph 20.7 mph N/A   Overcast
9:55 AM 55.4 °F 38.3 °F 53% 30.27 in 10.0 mi North 13.8 mph - N/A   Overcast
10:15 AM 55.8 °F 38.3 °F 52% 30.27 in 10.0 mi North 16.1 mph - N/A   Overcast
10:55 AM 56.3 °F 38.5 °F 51% 30.27 in 10.0 mi North 16.1 mph 21.9 mph N/A   Scattered Clouds
11:15 AM 56.3 °F 38.7 °F 52% 30.26 in 10.0 mi North 17.3 mph 21.9 mph N/A   Scattered Clouds
11:35 AM 56.5 °F 39.0 °F 52% 30.25 in 10.0 mi North 17.3 mph 21.9 mph N/A   Scattered Clouds
11:55 AM 57.4 °F 39.4 °F 51% 30.23 in 10.0 mi North 19.6 mph 26.5 mph N/A   Scattered Clouds
12:15 PM 58.1 °F 39.9 °F 51% 30.23 in 10.0 mi NNE 15.0 mph 21.9 mph N/A   Clear
12:35 PM 59.7 °F 39.9 °F 48% 30.22 in 10.0 mi North 13.8 mph 19.6 mph N/A   Clear
1:15 PM 60.8 °F 39.6 °F 46% 30.22 in 10.0 mi North 9.2 mph - N/A   Clear
1:55 PM 62.1 °F 39.4 °F 43% 30.18 in 10.0 mi North 10.4 mph 19.6 mph N/A   Scattered Clouds
2:15 PM 61.7 °F 38.8 °F 43% 30.18 in 10.0 mi North 11.5 mph - N/A   Mostly Cloudy
2:35 PM 63.7 °F 38.5 °F 39% 30.15 in 10.0 mi NNW 9.2 mph 18.4 mph N/A   Mostly Cloudy
2:55 PM 64.2 °F 38.3 °F 38% 30.14 in 10.0 mi North 10.4 mph - N/A   Scattered Clouds
3:15 PM 64.9 °F 38.1 °F 37% 30.14 in 10.0 mi NW 9.2 mph 16.1 mph N/A   Mostly Cloudy
3:35 PM 66.4 °F 37.8 °F 35% 30.13 in 10.0 mi NNW 10.4 mph - N/A   Mostly Cloudy
3:55 PM 66.2 °F 36.9 °F 34% 30.12 in 10.0 mi North 13.8 mph 18.4 mph N/A   Mostly Cloudy
4:15 PM 66.7 °F 37.2 °F 34% 30.12 in 10.0 mi NW 10.4 mph - N/A   Overcast
4:35 PM 66.7 °F 38.3 °F 35% 30.11 in 10.0 mi NNW 9.2 mph - N/A   Overcast
4:55 PM 66.6 °F 37.8 °F 35% 30.11 in 10.0 mi NNW 12.7 mph - N/A   Scattered Clouds
5:15 PM 66.4 °F 37.4 °F 34% 30.10 in 10.0 mi NNW 10.4 mph - N/A   Scattered Clouds
5:35 PM 65.7 °F 38.1 °F 36% 30.11 in 10.0 mi NNW 9.2 mph - N/A   Mostly Cloudy
5:55 PM 66.2 °F 37.4 °F 35% 30.11 in 10.0 mi NW 12.7 mph - N/A   Overcast
6:15 PM 65.7 °F 37.9 °F 36% 30.11 in 10.0 mi NW 10.4 mph - N/A   Overcast
6:35 PM 65.3 °F 38.1 °F 37% 30.11 in 10.0 mi NNW 8.1 mph - N/A   Overcast
6:55 PM 65.7 °F 37.6 °F 36% 30.12 in 10.0 mi NNW 9.2 mph - N/A   Overcast
7:15 PM 65.8 °F 35.8 °F 33% 30.12 in 10.0 mi North 9.2 mph - N/A   Overcast
7:35 PM 65.7 °F 35.8 °F 33% 30.14 in 10.0 mi NNW 8.1 mph - N/A   Overcast
7:55 PM 64.9 °F 36.7 °F 35% 30.14 in 10.0 mi NNW 6.9 mph - N/A   Overcast
8:15 PM 64.8 °F 36.9 °F 36% 30.15 in 10.0 mi NNW 6.9 mph - N/A   Overcast
8:35 PM 64.6 °F 37.0 °F 36% 30.15 in 10.0 mi NW 5.8 mph - N/A   Overcast
8:55 PM 64.4 °F 36.9 °F 36% 30.15 in 10.0 mi NNW 4.6 mph - N/A   Overcast
9:15 PM 64.4 °F 37.4 °F 37% 30.16 in 10.0 mi North 5.8 mph - N/A   Overcast
9:35 PM 64.4 °F 37.0 °F 36% 30.16 in 10.0 mi North 4.6 mph - N/A   Overcast
9:55 PM 64.4 °F 37.4 °F 37% 30.17 in 10.0 mi North 4.6 mph - N/A   Overcast
11:55 PM 63.7 °F 34.7 °F 34% 30.18 in 10.0 mi NNE 9.2 mph - N/A   Overcast